Weather History for KCLT - August, 2014

Change the Weather History Date:

Friday, August 8, 2014

  Actual Average Record
Temperature  
Mean Temperature 77 °F 78 °F  
Max Temperature 81 °F 88 °F 102 °F (2007)
Min Temperature 73 °F 68 °F 55 °F (2004)
Degree Days  
Heating Degree Days 0 0  
Month to date heating degree days 0 0  
Since 1 June heating degree days 0 3  
Since 1 July heating degree days 0 0  
Cooling Degree Days 12 13  
Month to date cooling degree days 82 104  
Year to date cooling degree days 1078 998  
Since 1 June cooling degree days 850 835  
Growing Degree Days 27 (Base 50)    
Moisture  
Dew Point 68 °F    
Average Humidity 74    
Maximum Humidity 84    
Minimum Humidity 64    
Precipitation  
Precipitation T in 0.13 in 1.37 in (1928)
Month to date precipitation 2.56 1.13  
Year to date precipitation 32.58 25.51  
Snow  
Snow 0.00 in 0.00 in 0.00 in ()
Month to date snowfall 0.0 0.0  
Since 1 June snowfall 0.0 0.0  
Since 1 July snowfall 0.0 0.0  
Snow Depth 0.00 in    
Sea Level Pressure  
Sea Level Pressure 30.06 in    
Wind  
Wind Speed 6 mph (East)    
Max Wind Speed 13 mph    
Max Gust Speed 16 mph    
Visibility 8 miles    
Events Rain    
T = Trace of Precipitation, MM = Missing Value Source: NWS Daily Summary

Daily Weather History Graph

Daily Weather History Graph

Search for Another Location

Airport or City:

Trip Planner

Search our weather history database for the weather conditions in past years. The results will help you decide how hot, cold, wet, or windy it might be!

Date:

Astronomy

Aug. 08, 2014 Rise Set
Actual Time 6:38 AM EDT 8:20 PM EDT
Civil Twilight 6:10 AM EDT 8:47 PM EDT
Nautical Twilight 5:37 AM EDT 9:20 PM EDT
Astronomical Twilight 5:02 AM EDT 9:55 PM EDT
Moon 6:29 PM EDT (8/8) 4:10 AM EDT (8/8)
Length of Visible Light 14h 36m
Length of Day
13h 42m
Waxing Gibbous, 93% of the Moon is Illuminated
Aug 8
Waxing Gibbous
Aug 10
Full
Aug 17
Last Quarter
Aug 25
New
Sep 2
First Quarter

Hourly Weather History & Observations

Time (EDT) Temp. Heat Index Dew Point Humidity Pressure Visibility Wind Dir Wind Speed Gust Speed Precip Events Conditions
12:52 AM 77.0 °F - 64.9 °F 66% 30.02 in 10.0 mi East 6.9 mph - N/A   Mostly Cloudy
1:52 AM 77.0 °F - 66.0 °F 69% 30.01 in 10.0 mi East 8.1 mph - N/A   Mostly Cloudy
2:52 AM 75.9 °F - 66.9 °F 74% 30.01 in 9.0 mi East 6.9 mph - N/A   Mostly Cloudy
3:52 AM 75.0 °F - 66.9 °F 76% 30.01 in 9.0 mi East 5.8 mph - N/A   Mostly Cloudy
4:52 AM 73.9 °F - 66.9 °F 79% 30.01 in 8.0 mi East 4.6 mph - N/A   Overcast
5:52 AM 73.9 °F - 66.9 °F 79% 30.03 in 7.0 mi East 4.6 mph - N/A   Overcast
6:52 AM 73.9 °F - 68.0 °F 82% 30.06 in 7.0 mi ENE 3.5 mph - N/A   Overcast
7:52 AM 75.0 °F - 68.0 °F 79% 30.07 in 6.0 mi East 5.8 mph - N/A   Haze
8:52 AM 75.0 °F - 68.0 °F 79% 30.09 in 6.0 mi ESE 8.1 mph - N/A   Haze
9:52 AM 75.0 °F - 68.0 °F 79% 30.10 in 6.0 mi SE 6.9 mph - N/A   Haze
10:52 AM 77.0 °F - 68.0 °F 74% 30.10 in 6.0 mi SE 8.1 mph - N/A   Haze
11:52 AM 78.1 °F - 66.9 °F 68% 30.12 in 8.0 mi Variable 3.5 mph - N/A   Overcast
12:22 PM 78.8 °F - 68.0 °F 69% 30.14 in 8.0 mi Calm Calm - N/A   Overcast
12:52 PM 79.0 °F - 68.0 °F 69% 30.11 in 8.0 mi Calm Calm - N/A   Overcast
1:52 PM 80.1 °F 82.3 °F 66.9 °F 64% 30.09 in 9.0 mi East 5.8 mph - 0.00 in Rain Light Rain
2:52 PM 80.1 °F 82.7 °F 68.0 °F 67% 30.09 in 9.0 mi NE 3.5 mph - 0.00 in   Overcast
3:52 PM 79.0 °F - 70.0 °F 74% 30.06 in 8.0 mi ENE 8.1 mph - 0.00 in Rain Light Rain
4:52 PM 80.1 °F 83.2 °F 70.0 °F 71% 30.04 in 9.0 mi ESE 11.5 mph - 0.00 in   Overcast
5:52 PM 79.0 °F - 69.1 °F 72% 30.03 in 9.0 mi ESE 4.6 mph - N/A   Mostly Cloudy
6:52 PM 79.0 °F - 68.0 °F 69% 30.03 in 9.0 mi ESE 6.9 mph - N/A   Overcast
7:52 PM 78.1 °F - 68.0 °F 71% 30.03 in 9.0 mi ESE 4.6 mph - N/A   Mostly Cloudy
8:52 PM 78.1 °F - 68.0 °F 71% 30.04 in 10.0 mi ESE 6.9 mph - 0.00 in   Mostly Cloudy
9:52 PM 77.0 °F - 66.9 °F 71% 30.07 in 10.0 mi ESE 5.8 mph - N/A   Mostly Cloudy
10:52 PM 77.0 °F - 66.9 °F 71% 30.06 in 10.0 mi East 5.8 mph - N/A   Mostly Cloudy
11:52 PM 75.9 °F - 66.9 °F 74% 30.06 in 10.0 mi ESE 5.8 mph - N/A   Overcast